Regional Weather Roundup
Issued by NWS

Home | Current Version | Previous Version | Graphics & Text | Print | Product List | Glossary Off
Versions: 1 2 3 4 5 6 7 8 9 10 11 12 13 14 15 16 17 18 19 20 21 22 23 24 25 26 27 28 29 30 31 32 33 34 35 36 37 38 39 40 41 42 43 44 45 46 47 48 49 50

926
ASUS43 KMKX 240721
RWRWI

WISCONSIN REGIONAL WEATHER ROUNDUP
NATIONAL WEATHER SERVICE MILWAUKEE/SULLIVAN WI
200 AM CDT TUE MAY 24 2016

NOTE: "FAIR" INDICATES FEW OR NO CLOUDS BELOW 12,000 FEET WITH NO
SIGNIFICANT WEATHER AND/OR OBSTRUCTIONS TO VISIBILITY.

WIZ001-002-006>008-014>016-023>028-240800-
NORTHWEST WISCONSIN

CITY           SKY/WX    TMP DP  RH WIND       PRES   REMARKS
SUPERIOR ARPT  FOG       58  57  99 CALM      29.78S VSB 1/2
ASHLAND        CLOUDY    60  59  96 S7        29.81F
HAYWARD        CLOUDY    62  59  90 CALM      29.84S
SIREN          CLOUDY    60  59  96 E3        29.81F
CUMBERLAND     MOCLDY    61  55  82 S10       29.82F
RICE LAKE      PTCLDY    63  58  83 SE5       29.84S
CHETEK         MOCLDY    62  61  98 CALM      29.83F
LADYSMITH      LGT RAIN  64  61  90 CALM      29.85F
EAU CLAIRE     CLOUDY    65  62  90 SE6       29.84R
MENOMONIE      CLOUDY    64  63  96 CALM      29.83S
NEW RICHMOND   LGT RAIN  63  60  92 CALM      29.82S
OSCEOLA        CLOUDY    64  64  99 E3        29.83S
$$

WIZ003>005-009-010-017-018-240800-
NORTH CENTRAL WISCONSIN

CITY           SKY/WX    TMP DP  RH WIND       PRES   REMARKS
MANITOWISH WTR CLOUDY    60  60 100 CALM      29.86S FOG
ARBOR VITAE    CLOUDY    64  59  86 CALM      29.86S
WOODRUFF       CLOUDY    64  59  86 CALM      29.86S
RHINELANDER    MOCLDY    64  49  57 SW6       29.88S
EAGLE RIVER      N/A     61  46  59 CALM      29.86S
LAND O LAKES   CLOUDY    60  56  87 CALM      29.87S
PHILLIPS       CLOUDY    64  59  82 S5        29.85F
TOMAHAWK       MOCLDY    63  51  65 CALM      29.89R
MEDFORD        CLOUDY    62  60  92 CALM      29.88F
MERRILL        CLOUDY    61  51  68 CALM      29.88S
$$

WIZ029-030-035-036-043>047-240800-
CENTRAL WISCONSIN

CITY           SKY/WX    TMP DP  RH WIND       PRES   REMARKS
WAUSAU         MOCLDY    63  52  67 SE3       29.86F
MOSINEE        PTCLDY    59  50  72 CALM      29.89S
MARSHFIELD     MOCLDY    63  53  70 CALM      29.86F
STEVENS POINT  CLOUDY    56  49  75 CALM      29.89S
WAUPACA        CLEAR     58  51  78 CALM      29.89R
WAUTOMA        MOCLDY    53  49  86 CALM      29.89S
WISC RAPIDS    CLOUDY    58  48  69 CALM      29.88F
CAMP DOUGLAS   CLOUDY    58  57  96 SE3       29.87R
$$

WIZ011>013-019>022-031-037>040-048>050-240800-
NORTHEAST WISCONSIN

CITY           SKY/WX    TMP DP  RH WIND       PRES   REMARKS
ANTIGO         CLOUDY    59  46  63 CALM      29.88F
SHAWANO        PTCLDY    63  49  59 CALM      29.89R
OCONTO         CLEAR     53  50  90 CALM      29.86F
STURGEON BAY   NOT AVBL
GREEN BAY      CLEAR     63  42  46 S8        29.88S
MANITOWOC      PTCLDY    61  38  42 S8        29.91S
APPLETON       CLEAR     59  43  55 S7        29.87S
CLINTONVILLE   MOCLDY    59  48  67 CALM      29.88R
OSHKOSH        CLEAR     58  45  62 S8        29.89S
$$

WIZ032>034-041-042-053>061-240800-
SOUTHWEST WISCONSIN

CITY           SKY/WX    TMP DP  RH WIND       PRES   REMARKS
LA CROSSE      CLOUDY    67  60  78 E6        29.84F
SPARTA         CLOUDY    63  57  81 CALM      29.87S
VIROQUA        CLOUDY    67  49  52 S9        29.89S
BOSCOBEL       CLOUDY    58  52  80 CALM      29.88
PRAIRIE DU CHI CLOUDY    66  51  56 CALM      29.88S
PLATTEVILLE    MOCLDY    65  49  55 S8        29.91R
$$

WIZ056-057-062-063-064-067-068-240800-
SOUTH CENTRAL WISCONSIN

CITY           SKY/WX    TMP DP  RH WIND       PRES   REMARKS
REEDSBURG      CLOUDY    62  48  60 CALM      29.89R
BARABOO/DELLS  CLOUDY    61  46  57 S5        29.89S
LONE ROCK      CLOUDY    57  51  80 CALM      29.90R
MINERAL POINT  PTCLDY    64  45  48 S6        29.91S
MADISON        PTCLDY    61  49  64 SW3       29.90S
MIDDLETON      PTCLDY    58  48  68 CALM      29.91R
WATERTOWN      CLEAR     59  45  59 CALM      29.90S
MONROE         PTCLDY    64  45  48 SW10      29.91S
JANESVILLE     CLOUDY    61  46  59 S5        29.91R
$$

WIZ051-052-058>065-066-070>072-240800-
SOUTHEAST WISCONSIN

CITY           SKY/WX    TMP DP  RH WIND       PRES   REMARKS
MILWAUKEE      PTCLDY    61  40  45 SW5       29.92S
WAUKESHA       CLEAR     59  37  44 S6        29.93F
MILWAUKEE/TIMM CLEAR     61  34  36 S5        29.92S
RACINE         CLEAR     58  44  60 CALM      29.94S
BURLINGTON     PTCLDY    50  45  81 CALM      29.92F
KENOSHA        CLEAR     60  42  51 S7        29.93S
FOND DU LAC    CLEAR     55  44  66 S6        29.90S
SHEBOYGAN      CLEAR     53  38  56 CALM      29.91F
WEST BEND      CLEAR     55  37  50 CALM      29.91S
JUNEAU         CLEAR     59  43  55 SE5       29.92S
$$

LSZ147-162-240800-
LAKE SUPERIOR

STATION/POSITION TIME  TEMP    WIND        PRES    WAVE
                       AIR SEA DIR/SP/G            HT/PER
                 (UTC) (F)     (DEG/KT/KT) (MB)    (FT/S)
W MID LAKE BUOY  0650   54 38  180/  4/  6 1009.3R   1
DEVILS ISLAND    0700   60     220/  6/  7 1009.2R
PORT WING        0700          190/  3/ 11 1009.5R
SAXON HARBOR     0600   62     160/  5/ 15 1010.2F
$$

LMZ867-665-643>646-240800-
LAKE MICHIGAN

STATION/POSITION TIME  TEMP    WIND        PRES    WAVE
                       AIR SEA DIR/SP/G            HT/PER
                 (UTC) (F)     (DEG/KT/KT) (MB)    (FT/S)
CHAMBERS ISLAND  0640   65     170/  6/ 12 1011.9S
N MID LAKE BUOY  0650   49 44  200/ 10/ 12 1012.0S   2/ 5
NORTHPORT PIER   0600   58     160/  8/ 12 1011.9S
SISTER BAY       0619   63     180/ 14/ 17   N/A
ALGOMA LAKESHORE 0602          210/ 12/ 14   N/A
KEWAUNEE LAKESHO 0700   53     180/  9/ 10 1011.8F
SHEBOYGAN LAKESH 0700   57     180/ 14/ 15 1013.3F
PORT WASHINGTON  0640   57     240/  1/  4 1013.5F
S MID LAKE BUOY  0650   55 49  160/ 12/ 12 1013.6S   1
KENOSHA   LAKESH 0700   59     190/  6/  7 1013.2S
$$

TC  - TEMPERATURE IN CELSIUS
VSB - VISIBILITY IN STATUTE MILES
WCI - WIND CHILL INDEX
HX  - HEAT INDEX





USA.gov is the U.S. government's official web portal to all federal, state and local government web resources and services.